Location: Unspecified
(32.5099°N, 80.0190°W)
Time: 21:49:44
(UTC-04:00)

CZ-3 Stage 3 - Visible Passes

Search period start: 01 September 2014 00:00
Search period end: 11 September 2014 00:00
Orbit: 411 x 34838 km, 30.7° (Epoch: 30 August)

Date Brightness Start Highest point End Pass type
(mag) Time Alt. Az. Time Alt. Az. Time Alt. Az.
01 Sep 9.0 00:19:01 10° SE 05:21:20 39° SE 06:06:39 10° E visible
03 Sep 7.0 00:54:47 10° S 09:33:25 68° SSE 09:44:11 10° E visible
04 Sep 9.0 00:03:08 10° SE 05:21:10 41° SE 06:05:10 10° E visible
06 Sep 6.9 00:54:11 10° S 09:31:40 70° SSE 09:42:01 10° E visible
06 Sep 7.3 23:47:24 10° SE 05:20:53 43° SE 06:03:30 10° E visible
09 Sep 6.7 00:53:17 10° SSW 09:29:47 72° SSE 09:39:45 10° E visible
09 Sep 7.5 23:31:48 10° SE 05:20:27 45° SE 06:01:41 10° E visible
